TimeCDT,TemperatureF,Dew PointF,Humidity,Sea Level PressureIn,VisibilityMPH,Wind Direction,Wind SpeedMPH,Gust SpeedMPH,PrecipitationIn,Events,Conditions,WindDirDegrees,DateUTC
12:54 AM,64.9,63.0,93,30.10,10.0,Calm,Calm,-,N/A,,Clear,0,2013-09-05 05:54:00
1:54 AM,64.0,62.1,93,30.10,10.0,Calm,Calm,-,N/A,,Clear,0,2013-09-05 06:54:00
2:54 AM,64.0,62.1,93,30.11,10.0,Calm,Calm,-,N/A,,Clear,0,2013-09-05 07:54:00
3:54 AM,63.0,61.0,93,30.12,10.0,NNW,3.5,-,N/A,,Clear,340,2013-09-05 08:54:00
4:54 AM,63.0,62.1,97,30.12,7.0,North,3.5,-,N/A,,Clear,10,2013-09-05 09:54:00
5:54 AM,62.1,62.1,100,30.13,8.0,Calm,Calm,-,N/A,,Clear,0,2013-09-05 10:54:00
6:54 AM,62.1,61.0,96,30.15,5.0,Calm,Calm,-,N/A,,Clear,0,2013-09-05 11:54:00
7:54 AM,66.9,64.0,90,30.16,9.0,Calm,Calm,-,N/A,,Clear,0,2013-09-05 12:54:00
8:20 AM,68.0,64.4,88,30.17,10.0,ENE,4.6,-,N/A,,Partly Cloudy,60,2013-09-05 13:20:00
8:54 AM,71.1,66.0,84,30.17,10.0,Calm,Calm,-,N/A,,Clear,0,2013-09-05 13:54:00
9:54 AM,75.0,66.0,73,30.18,10.0,Calm,Calm,-,N/A,,Clear,0,2013-09-05 14:54:00
10:54 AM,79.0,66.9,66,30.18,10.0,East,6.9,-,N/A,,Clear,90,2013-09-05 15:54:00
11:54 AM,82.0,68.0,62,30.18,10.0,ESE,3.5,-,N/A,,Clear,120,2013-09-05 16:54:00
12:54 PM,82.9,69.1,63,30.17,10.0,East,8.1,-,N/A,,Clear,90,2013-09-05 17:54:00
1:54 PM,84.0,69.1,61,30.16,10.0,East,10.4,-,N/A,,Clear,100,2013-09-05 18:54:00
2:54 PM,84.0,68.0,58,30.15,10.0,East,10.4,-,N/A,,Clear,80,2013-09-05 19:54:00
3:54 PM,84.0,68.0,58,30.14,10.0,ESE,8.1,-,N/A,,Clear,110,2013-09-05 20:54:00
4:54 PM,82.9,66.9,58,30.14,10.0,East,8.1,-,N/A,,Clear,80,2013-09-05 21:54:00
5:54 PM,82.0,68.0,62,30.13,10.0,East,10.4,-,N/A,,Clear,100,2013-09-05 22:54:00
6:54 PM,80.1,69.1,69,30.13,10.0,East,6.9,-,N/A,,Clear,90,2013-09-05 23:54:00
7:54 PM,73.9,68.0,82,30.13,10.0,East,3.5,-,N/A,,Clear,90,2013-09-06 00:54:00
8:54 PM,72.0,68.0,87,30.14,10.0,East,3.5,-,N/A,,Clear,100,2013-09-06 01:54:00
9:54 PM,72.0,68.0,87,30.14,10.0,East,5.8,-,N/A,,Clear,100,2013-09-06 02:54:00
10:54 PM,71.1,66.0,84,30.14,10.0,ESE,8.1,-,N/A,,Clear,120,2013-09-06 03:54:00
11:54 PM,71.1,64.9,81,30.13,10.0,SE,10.4,-,N/A,,Clear,130,2013-09-06 04:54:00